This is the latest recevied weather packets stored in our database for station/object KB0BS-13. If no packets are shown the sender has not sent any weather packets the latest 10 day(s).
| Time | Temp. | Humidity | Pressure | Rain* | Wind** | Luminosity | Snow |
|---|---|---|---|---|---|---|---|
| 1778002483 | 8.33° C | 53% | 1005.6 hPa | 0 mm | - | 172 W/m² | - |
| 1778002180 | 8.33° C | 52% | 1005.6 hPa | 0 mm | - | 211 W/m² | - |
| 1778001879 | 8.33° C | 55% | 1005.5 hPa | 0 mm | - | 305 W/m² | - |
| 1778001578 | 7.78° C | 53% | 1005.7 hPa | 0 mm | - | 153 W/m² | - |
| 1778001275 | 8.33° C | 53% | 1005.6 hPa | 0 mm | - | 173 W/m² | - |
| 1778000972 | 8.33° C | 53% | 1005.6 hPa | 0 mm | - | 173 W/m² | - |
| 1778000668 | 9.44° C | 51% | 1005.3 hPa | 0 mm | - | 249 W/m² | - |
| 1778000364 | 8.89° C | 50% | 1005.4 hPa | 0 mm | - | 914 W/m² | - |
| 1778000060 | 8.33° C | 51% | 1005.5 hPa | 0 mm | - | 894 W/m² | - |
| 1777999150 | 7.78° C | 55% | 1005.5 hPa | 0 mm | - | 250 W/m² | - |
| 1777998849 | 8.33° C | 57% | 1005.4 hPa | 0 mm | - | 392 W/m² | - |
| 1777998548 | 8.33° C | 57% | 1005.6 hPa | 0 mm | - | 471 W/m² | - |
| 1777998243 | 7.22° C | 58% | 1005.7 hPa | 0 mm | - | 471 W/m² | - |
| 1777997940 | 7.78° C | 56% | 1005.7 hPa | 0 mm | - | 858 W/m² | - |
| 1777997637 | 7.22° C | 58% | 1005.8 hPa | 0 mm | - | 449 W/m² | - |
| 1777997334 | 7.22° C | 58% | 1005.9 hPa | 0 mm | - | 274 W/m² | - |
| 1777997033 | 6.67° C | 60% | 1005.8 hPa | 0 mm | - | 256 W/m² | - |
| 1777996729 | 7.22° C | 59% | 1005.8 hPa | 0 mm | - | 477 W/m² | - |
| 1777995818 | 6.11° C | 60% | 1005.8 hPa | 0 mm | - | 129 W/m² | - |
| 1777995514 | 6.11° C | 59% | 1005.7 hPa | 0 mm | - | 199 W/m² | - |
| 1777995211 | 6.11° C | 58% | 1005.7 hPa | 0 mm | - | 131 W/m² | - |
| 1777994908 | 6.67° C | 60% | 1005.6 hPa | 0 mm | - | 120 W/m² | - |
| 1777994605 | 6.11° C | 59% | 1005.4 hPa | 0 mm | - | 123 W/m² | - |
| 1777994300 | 6.67° C | 58% | 1005.5 hPa | 0 mm | - | 165 W/m² | - |
| 1777993997 | 6.67° C | 60% | 1005.4 hPa | 0 mm | - | 193 W/m² | - |
* Rain latest hour (hover to see other rain measurements)
** Current wind speed in m/s (hover to see current wind gust speed)